Wind_Speed
5 5 5 6 8 9 10 10 11 10 10 9 9 9 9 9 10 10 10 10 9 9 8 7 7 6 6 7 7 7 7 7 7 7 8 9 10 10 11 12 12 13 13
3 2 3 3 4 6 7 9 10 10 10 9 9 9 9 9 10 10 10 10 10 9 8 7 6 6 6 7 8 8 8 9 9 9 10 10 11 12 12 13 13 14 14
2 2 1 1 2 3 5 6 8 8 9 8 8 7 7 7 8 8 8 9 9 8 6 6 5 6 7 8 9 9 10 11 11 12 12 13 13 14 14 14 15 15 15
4 3 3 2 1 1 3 4 5 6 7 7 7 6 6 6 7 7 7 7 7 6 5 5 6 7 9 10 11 12 12 13 13 13 14 15 15 16 16 16 17 17 17
7 6 5 4 3 1 1 3 4 5 5 6 6 5 6 6 6 6 6 6 6 5 5 6 7 9 10 11 12 12 12 13 13 13 13 14 15 16 17 17 18 18 19
9 9 8 7 4 2 1 1 3 4 4 4 4 4 4 5 5 5 5 5 5 5 5 6 7 8 9 10 10 10 11 12 12 13 14 15 15 16 16 17 17 17 18
11 11 10 9 7 5 3 1 1 2 3 3 4 4 4 4 5 5 6 6 6 6 6 7 7 8 9 10 11 11 13 14 15 15 16 16 16 16 16 16 16 17 17
12 12 11 10 9 7 4 2 1 1 2 3 4 4 5 6 6 7 7 8 7 7 8 8 9 9 10 11 12 13 14 15 16 17 17 17 17 17 17 17 17 17 18
11 11 11 11 10 8 6 5 3 3 3 4 5 6 7 7 8 8 9 9 9 9 10 10 11 11 12 12 13 13 14 14 15 16 16 16 16 16 16 16 16 16 16
10 10 10 10 10 9 8 6 6 5 5 5 6 7 8 8 9 10 11 11 11 11 12 12 12 12 12 11 11 11 12 12 12 13 13 13 13 13 13 13 14 14 15
7 8 9 9 9 9 8 8 7 7 6 7 7 8 9 10 10 11 12 13 13 12 12 12 11 11 10 10 9 10 10 11 11 11 11 12 12 13 13 14 14 15 16
5 6 8 9 9 9 8 8 8 8 8 8 8 8 9 10 11 12 13 13 13 12 12 11 11 10 10 10 10 10 10 10 11 11 12 13 14 14 15 16 16 17 18
5 7 8 10 10 10 10 10 10 10 10 10 10 10 10 11 11 12 13 13 13 13 12 12 11 11 11 11 11 11 12 12 13 14 14 15 16 17 18 19 20 21 22
6 8 11 12 13 13 13 13 14 14 14 14 13 13 13 12 12 13 13 13 13 13 13 13 14 14 13 13 13 13 14 14 15 16 16 18 19 20 22 23 24 25 26
8 10 12 14 15 16 16 16 17 17 17 16 16 16 16 15 15 14 15 15 15 15 15 15 16 16 16 16 16 16 16 16 17 17 18 19 20 22 24 25 27 29 30
9 11 13 15 16 17 18 18 19 20 20 19 19 19 19 19 19 18 18 18 19 18 18 18 19 20 21 21 21 21 21 20 20 21 21 22 23 25 27 28 30 32 33
12 13 15 16 17 18 19 20 21 22 23 23 23 24 24 24 24 24 24 23 24 24 24 24 24 25 27 27 27 26 25 24 24 24 25 27 28 29 31 33 34 36 37
15 16 17 18 19 20 21 21 22 23 25 26 27 27 28 29 30 31 30 30 30 31 31 31 30 30 30 30 29 28 27 26 26 27 28 30 32 34 35 36 38 39 40
19 20 20 21 22 22 23 23 25 26 28 30 31 32 33 34 35 36 36 37 38 37 36 34 32 32 32 31 30 29 29 28 28 28 30 33 35 37 39 39 41 42 43
23 24 24 24 24 25 25 26 28 30 33 35 37 38 38 38 38 40 40 41 41 39 37 33 30 29 27 27 27 27 27 27 29 30 32 34 36 39 42 43 44 45 46
27 28 28 28 28 28 29 30 32 34 37 39 39 40 38 38 39 38 40 40 39 38 35 31 26 23 22 22 24 25 28 30 30 32 34 37 39 41 43 45 47 49 50
31 31 31 31 31 31 32 33 36 38 41 44 45 44 41 38 36 34 34 34 34 33 30 24 21 22 23 25 25 27 28 30 31 34 36 39 41 44 47 49 51 53 54
32 33 33 33 34 34 35 36 38 40 44 45 46 42 38 35 31 30 29 31 30 27 24 21 21 23 25 26 28 30 32 35 36 38 40 44 46 49 52 53 55 56 57
31 33 33 34 35 36 37 38 40 42 45 46 43 40 37 31 28 25 25 26 24 23 22 22 24 26 29 30 33 35 38 41 44 47 48 50 51 53 55 56 58 59 60
32 33 34 35 36 38 39 40 42 43 46 46 44 40 33 27 25 23 23 24 23 23 24 26 28 31 33 36 37 40 42 45 48 51 54 56 58 58 58 59 60 62 63
32 33 35 36 38 40 41 42 43 44 44 44 43 39 33 30 27 24 24 25 26 28 29 31 33 36 38 40 42 45 47 50 52 54 56 58 59 60 61 62 63 65 66
Wind_Direction
300 288 273 262 255 253 255 259 258 257 257 256 257 259 260 262 264 266 269 273 275 275 275 277 277 278 276 271 269 270 272 272 272 269 266 263 263 261 261 261 262 261 262
320 310 284 267 257 252 253 257 259 259 261 262 262 261 261 263 265 266 268 269 270 270 269 267 267 267 267 265 266 268 271 272 272 270 268 265 263 260 258 257 256 256 258
6 3 339 280 260 255 254 255 256 258 260 262 264 265 265 264 265 266 265 264 264 264 261 255 254 256 259 263 267 271 272 273 274 274 273 270 267 264 261 260 258 257 258
42 42 48 52 29 258 248 247 249 252 255 258 262 266 266 268 269 269 266 265 263 258 250 248 253 257 260 264 269 273 274 274 275 276 276 274 271 268 266 264 262 261 261
56 50 49 50 51 40 235 231 234 241 249 254 258 261 263 266 267 267 264 262 259 253 248 250 254 257 261 265 270 271 271 271 272 273 274 274 272 269 268 266 263 261 261
63 54 47 44 42 45 59 211 217 225 234 243 248 252 254 254 253 253 253 249 246 247 249 251 254 256 259 262 265 266 267 269 271 271 271 270 268 267 267 265 263 261 261
66 57 49 45 44 47 58 91 194 217 225 231 232 231 231 234 237 241 243 245 249 254 257 257 257 260 264 267 268 269 271 273 273 273 272 270 268 267 265 264 262 262 262
70 60 53 48 44 45 49 49 22 285 258 247 239 235 233 237 243 248 253 255 256 259 260 262 266 270 273 275 277 278 278 277 276 274 273 272 271 270 270 269 268 267 267
72 64 56 52 48 43 37 25 1 326 298 282 267 256 251 249 251 256 261 265 267 270 273 277 279 280 280 282 284 284 284 282 282 281 278 277 278 277 277 277 277 275 275
71 64 56 51 47 44 35 22 5 346 326 304 287 277 271 267 265 266 268 272 276 281 284 286 286 284 285 287 287 287 286 286 286 286 285 284 283 282 282 283 283 284 284
59 50 42 40 38 33 27 20 8 353 337 320 303 290 285 282 280 280 280 281 284 287 290 290 288 286 284 283 284 285 287 290 291 291 290 289 288 286 284 284 284 285 285
31 23 17 15 15 13 9 3 355 348 339 326 312 300 293 290 288 287 288 289 288 288 287 285 281 278 277 278 281 285 289 292 295 294 292 290 288 286 285 286 286 286 286
356 351 349 348 349 348 348 347 343 338 333 327 317 306 300 296 292 290 289 289 288 285 281 278 275 274 276 278 282 285 288 289 289 288 287 287 287 288 289 290 289 289 288
328 333 332 333 334 333 333 334 335 333 329 326 320 311 303 297 291 288 285 284 281 279 275 271 269 270 272 275 277 279 280 280 280 281 282 283 285 286 287 288 289 289 288
310 318 322 324 327 328 329 329 329 327 323 321 315 310 305 298 289 283 280 278 276 274 271 268 265 265 267 268 269 270 272 273 275 277 279 282 283 284 284 285 285 284 284
294 306 314 319 324 328 331 331 330 326 322 316 310 304 298 293 285 278 273 272 271 270 269 267 266 265 265 264 264 266 267 268 271 274 276 279 281 283 284 284 283 283 282
283 295 303 310 317 323 327 330 330 327 320 314 307 299 293 288 282 275 270 267 267 267 268 268 268 266 265 264 263 263 263 266 270 273 277 279 281 283 284 284 282 281 280
282 289 295 301 308 314 319 323 324 321 316 310 303 296 289 282 276 271 266 264 264 264 265 267 268 269 268 269 267 265 266 270 272 275 279 281 283 284 284 282 281 280 278
280 285 289 295 300 305 310 315 316 313 311 305 299 293 288 281 275 269 265 262 263 263 265 269 272 276 276 274 273 271 274 275 277 279 282 284 285 286 285 283 282 281 280
281 284 287 291 294 298 302 307 308 307 303 299 297 293 288 282 276 271 266 265 265 266 268 271 276 279 279 279 279 280 281 284 288 288 288 288 287 286 286 286 285 283 282
281 283 285 287 289 292 295 298 299 299 297 295 295 293 290 284 280 276 273 270 268 267 270 269 275 282 289 292 293 294 292 292 292 292 291 290 289 288 288 288 287 286 284
277 279 279 282 285 286 288 291 294 296 295 296 294 295 291 287 283 278 274 272 272 272 269 275 287 295 295 296 298 300 298 296 296 295 293 292 291 291 291 290 289 287 286
274 275 275 278 280 282 286 290 292 294 294 296 298 297 299 297 287 278 275 273 274 274 280 289 298 301 303 303 303 303 303 302 301 298 297 296 296 295 293 292 290 288 286
269 269 270 274 278 281 285 288 291 292 295 297 300 302 307 307 294 285 278 274 278 285 293 299 301 303 305 305 306 305 304 305 304 304 302 300 298 297 295 294 292 290 288
264 265 267 272 276 279 283 285 289 291 294 298 303 310 315 314 305 294 286 285 289 300 304 304 303 303 303 304 304 304 304 303 302 302 302 302 301 299 297 295 293 291 289
262 262 265 268 272 276 280 283 287 290 294 299 306 311 315 313 308 300 298 298 300 303 304 303 302 301 301 302 302 302 302 301 300 300 300 299 299 298 297 296 294 292 290
Height
5903 5903 5902 5902 5902 5902 5902 5903 5903 5904 5905 5905 5905 5906 5906 5906 5906 5906 5906 5906 5906 5906 5907 5907 5907 5907 5907 5907 5907 5907 5908 5908 5909 5909 5909 5910 5910 5911 5911 5911 5911 5911 5911
5902 5901 5901 5901 5900 5900 5900 5901 5901 5902 5902 5903 5903 5903 5903 5903 5903 5903 5903 5903 5904 5904 5904 5905 5905 5905 5905 5905 5905 5905 5906 5906 5906 5907 5907 5908 5908 5908 5909 5909 5909 5909 5909
5901 5900 5900 5899 5899 5899 5899 5899 5899 5899 5900 5900 5900 5901 5901 5901 5901 5901 5901 5901 5901 5902 5902 5903 5903 5903 5903 5902 5903 5903 5903 5904 5904 5904 5904 5905 5905 5906 5906 5906 5906 5906 5906
5901 5900 5899 5898 5898 5897 5897 5897 5897 5898 5898 5898 5898 5898 5898 5899 5899 5899 5898 5899 5899 5900 5901 5901 5901 5901 5900 5900 5900 5901 5901 5901 5901 5901 5902 5902 5902 5902 5903 5903 5903 5903 5903
5900 5899 5898 5897 5897 5896 5896 5896 5896 5896 5896 5896 5896 5896 5896 5896 5896 5896 5896 5897 5897 5898 5899 5899 5899 5898 5898 5898 5898 5898 5899 5898 5898 5898 5898 5899 5899 5899 5899 5900 5900 5900 5900
5900 5899 5898 5897 5896 5896 5895 5895 5895 5895 5895 5895 5895 5894 5894 5894 5894 5894 5894 5894 5895 5896 5896 5896 5896 5896 5896 5895 5896 5896 5896 5896 5896 5896 5895 5895 5895 5896 5896 5896 5896 5896 5896
5899 5898 5898 5897 5896 5895 5895 5894 5894 5894 5894 5893 5893 5893 5892 5892 5892 5892 5892 5892 5893 5893 5894 5894 5894 5894 5893 5893 5893 5893 5893 5893 5893 5893 5892 5892 5892 5892 5892 5892 5892 5892 5892
5899 5898 5898 5897 5896 5895 5895 5894 5894 5893 5893 5892 5892 5891 5891 5891 5891 5891 5890 5891 5891 5891 5891 5891 5891 5891 5891 5891 5891 5891 5890 5890 5890 5889 5889 5888 5888 5888 5888 5888 5888 5888 5888
5899 5899 5898 5897 5896 5895 5895 5894 5894 5893 5893 5892 5891 5891 5890 5890 5889 5889 5889 5889 5889 5889 5889 5889 5889 5889 5888 5888 5887 5887 5887 5887 5886 5886 5886 5885 5885 5885 5885 5885 5885 5885 5885
5899 5899 5898 5897 5896 5895 5895 5894 5894 5893 5892 5892 5891 5890 5889 5888 5887 5887 5886 5887 5887 5887 5886 5886 5886 5885 5885 5885 5884 5884 5883 5883 5883 5883 5882 5882 5882 5881 5881 5881 5881 5881 5881
5899 5899 5898 5897 5896 5896 5895 5894 5893 5893 5892 5891 5889 5888 5887 5887 5886 5885 5884 5884 5885 5884 5884 5883 5883 5882 5882 5881 5881 5880 5880 5880 5879 5879 5879 5878 5878 5878 5877 5877 5877 5877 5877
5899 5898 5898 5897 5896 5895 5894 5893 5893 5891 5890 5889 5888 5887 5886 5885 5884 5883 5882 5882 5881 5881 5880 5880 5879 5879 5878 5878 5877 5877 5876 5876 5875 5875 5875 5874 5874 5874 5873 5873 5873 5872 5872
5898 5897 5897 5896 5895 5894 5893 5892 5891 5890 5889 5887 5886 5885 5884 5883 5881 5880 5879 5878 5878 5878 5877 5876 5876 5875 5875 5874 5874 5873 5873 5872 5872 5872 5871 5871 5870 5869 5869 5868 5868 5867 5867
5896 5896 5895 5894 5893 5892 5891 5890 5889 5888 5887 5885 5884 5883 5881 5880 5878 5877 5876 5875 5875 5874 5874 5873 5873 5872 5871 5871 5870 5870 5870 5869 5869 5868 5867 5867 5866 5865 5864 5863 5862 5862 5861
5895 5894 5893 5892 5891 5890 5889 5888 5887 5885 5884 5882 5881 5879 5878 5876 5875 5874 5872 5872 5871 5871 5870 5870 5869 5869 5868 5867 5867 5866 5866 5865 5865 5864 5863 5862 5861 5860 5859 5858 5857 5856 5855
5893 5892 5891 5890 5889 5888 5886 5885 5884 5882 5880 5879 5877 5875 5874 5872 5871 5870 5869 5868 5867 5866 5866 5866 5866 5865 5864 5863 5863 5862 5861 5861 5860 5858 5857 5856 5856 5854 5853 5852 5851 5849 5848
5891 5890 5889 5888 5886 5885 5884 5882 5880 5878 5877 5875 5873 5871 5870 5868 5866 5865 5864 5863 5861 5861 5861 5860 5860 5860 5859 5858 5857 5856 5855 5855 5854 5852 5851 5850 5849 5848 5846 5845 5843 5841 5840
5888 5887 5886 5885 5884 5882 5881 5879 5877 5875 5873 5871 5869 5867 5865 5862 5860 5858 5857 5856 5855 5853 5853 5853 5853 5853 5852 5851 5850 5849 5849 5848 5847 5846 5844 5842 5841 5839 5838 5836 5834 5833 5831
5885 5884 5883 5882 5880 5879 5877 5875 5873 5871 5869 5867 5864 5862 5859 5856 5853 5850 5849 5847 5846 5845 5845 5845 5845 5845 5844 5843 5842 5842 5841 5840 5839 5838 5836 5834 5832 5830 5828 5827 5824 5823 5820
5881 5880 5879 5878 5876 5874 5872 5870 5868 5866 5863 5860 5857 5855 5851 5848 5845 5842 5840 5838 5837 5837 5837 5838 5838 5837 5836 5835 5835 5834 5833 5832 5831 5830 5828 5826 5824 5821 5818 5816 5813 5811 5809
5877 5876 5875 5874 5872 5870 5867 5865 5863 5860 5856 5853 5849 5847 5843 5840 5836 5834 5832 5831 5830 5830 5830 5830 5830 5829 5828 5828 5827 5826 5825 5824 5823 5821 5819 5817 5814 5811 5808 5805 5801 5798 5795
5872 5871 5871 5869 5867 5865 5862 5859 5857 5854 5850 5846 5842 5837 5835 5832 5829 5827 5825 5824 5823 5823 5823 5823 5822 5822 5822 5821 5820 5819 5818 5817 5815 5812 5809 5806 5803 5800 5796 5792 5788 5784 5781
5866 5866 5865 5864 5861 5859 5856 5854 5852 5848 5843 5838 5835 5831 5827 5824 5822 5821 5820 5818 5816 5816 5816 5816 5816 5816 5815 5814 5812 5810 5808 5806 5804 5802 5799 5794 5791 5786 5781 5777 5773 5769 5764
5860 5859 5859 5858 5856 5854 5851 5849 5846 5842 5838 5834 5829 5826 5822 5818 5816 5815 5814 5812 5811 5810 5810 5810 5810 5809 5808 5806 5803 5801 5798 5794 5791 5787 5784 5781 5776 5771 5766 5760 5755 5750 5746
5852 5852 5852 5851 5850 5848 5845 5843 5840 5837 5833 5829 5824 5821 5817 5814 5812 5810 5809 5807 5806 5805 5804 5804 5803 5801 5799 5797 5794 5791 5787 5783 5779 5775 5769 5764 5759 5754 5748 5743 5737 5731 5726
5845 5845 5845 5844 5843 5841 5839 5836 5834 5831 5828 5824 5820 5816 5812 5810 5808 5806 5805 5803 5801 5800 5798 5797 5795 5793 5790 5786 5783 5780 5776 5772 5767 5762 5756 5751 5745 5739 5731 5725 5719 5713 5706